www.pogodaiklimat.ru

Погода и климат >> Архив погоды >> Саудовская Аравия >> Аэропорт Вади-эль-Давасир


ПОГОДА в Аэропорту Вади-эль-Давасир

  • Прогноз погоды в Аэропорту Вади-эль-Давасир
  • Монитор погоды в Аэропорту Вади-эль-Давасир

АРХИВ ПОГОДЫ в Аэропорту Вади-эль-Давасир

Время (UTC), дата Ветер
(напр.,м/с)
 
Видим.   Явления Облачность Т
(С)
Тd
(С)
f
(%)
Тe
(С)
Тes
(С)
Комфортность P
(гПа)
Po
(гПа)
Тmin
(С)
Tmax
(С)
R
(мм)
R24
(мм)
S
(см)
12 12.06 В 6 10 км ясно +45.0 +12.0 15 +44 +49 опасность
перегрева
996.8 931.7
15 12.06 В 5 10 км ясно +42.0 +14.0 19 +42 +42 опасность
перегрева
997.5 932.1
18 12.06 СВ 2 10 км ясно +36.5 +11.0 21 +36 +36 очень
жарко
999.3 934.0 +46.0
21 12.06 В 3 10 км ясно +34.0 +9.0 22 +33 +33 жарко 1000.5 933.9
00 13.06 СВ 7 6000 м пыль {туман} ясно +36.0 +10.0 21 +35 +35 очень
жарко
999.2 933.6
03 13.06 В 6 4000 м пыль ясно +34.0 +9.0 22 +33 +33 жарко 999.8 934.8
06 13.06 В 8 6000 м пыль ясно +40.0 +9.0 16 +38 +40 очень
жарко
1000.4 935.6 +34.0
09 13.06 СВ 9 10 км ясно +44.0 +9.0 13 +42 +44 опасность
перегрева
999.7 934.6
12 13.06 СВ 6 10 км ясно +45.0 +11.0 14 +44 +49 опасность
перегрева
997.3 932.6
15 13.06 В 5 10 км ясно +43.0 +13.0 17 +43 +43 опасность
перегрева
997.7 932.7
18 13.06 В 3 10 км ясно +36.0 +12.0 24 +36 +36 очень
жарко
999.7 934.5 +46.0
21 13.06 ЮВ 3 10 км ясно +33.0 +10.0 24 +32 +32 жарко 999.2 934.2
00 14.06 В 3 10 км ясно +31.0 +10.0 27 +31 +31 жарко 998.9 933.7
03 14.06 В 3 10 км ясно +30.0 +11.0 31 +30 +31 жарко 1000.7 934.8
06 14.06 СЗ 5 5000 м пыль ясно +36.0 +11.0 22 +35 +42 очень
жарко
1003.0 936.9 +30.0
09 14.06 СВ 3 10 км ясно +41.0 +8.0 14 +39 +57 опасность
солнечного
удара
1001.3 935.7
12 14.06 ЮВ 3 10 км 4/0
[As trans]
+42.0 +12.0 17 +41 +49 опасность
перегрева
999.2 933.7
15 14.06 ЮВ 3 10 км 5/0
[Ac lent Ci fib]
+41.0 +13.0 19 +41 +41 опасность
перегрева
998.8 933.3
18 14.06 штиль 0 10 км ясно +37.0 +11.0 21 +36 +36 очень
жарко
1000.2 934.7 +42.0
21 14.06 штиль 0 10 км ясно +32.0 +12.0 29 +32 +32 жарко 1000.0 934.2
00 15.06 Ю 2 10 км ясно +29.5 +11.0 32 +30 +30 жарко 998.8 933.1
03 15.06 Ю 2 10 км 4/0
[Ac trans]
+28.0 +11.0 35 +29 +29 жарко 1000.6 934.4
06 15.06 З 3 10 км ясно +37.0 +13.0 24 +37 +47 очень
жарко
1001.3 935.4 +26.0
09 15.06 штиль 0 10 км ясно +42.0 +15.0 21 +43 +73 опасность
перегрева
999.9 934.2
12 15.06 З 2 10 км 3/3 900 м
[Cu hum]
+44.0 +16.0 20 +46 +54 опасность
перегрева
997.8 932.3
15 15.06 Ю 3 10 км 3/3 900 м
[Cu hum]
+43.0 +15.0 20 +44 +44 опасность
перегрева
997.5 932.1
18 15.06 нст 1 10 км 5/3 900 м
[Cu hum Ac As]
+40.0 +13.0 20 +40 +40 очень
душно
998.7 933.7 +45.0
21 15.06 ЮЗ 2 10 км 5/0
[Ac As]
+37.0 +12.0 22 +36 +36 очень
жарко
998.4 933.7
00 16.06 ЮЗ 2 10 км 5/0
[Ac As]
+34.0 +12.0 26 +34 +34 очень
жарко
998.1 933.1
03 16.06 З 1 10 км 4/0
[Ac As]
+34.0 +12.0 26 +34 +34 очень
жарко
1000.0 934.7
06 16.06 З 5 10 км ясно +39.0 +11.0 19 +38 +44 очень
жарко
1000.2 935.0 +33.0
09 16.06 СЗ 6 8000 м пыль 3/0
[Ac trans]
+44.0 +10.0 13 +42 +49 опасность
перегрева
998.7 933.9
12 16.06 СЗ 5 8000 м пыль 6/3 900 м
[Cu hum Ac trans]
+45.0 +11.0 14 +44 +47 опасность
перегрева
997.0 932.2
15 16.06 ЮЗ 3 9000 м пыль 8/4 900 м
[Cu med, cong Ac trans]
+42.0 +10.0 15 +40 +41 очень
жарко
997.8 932.7
18 16.06 СЗ 4 10 км 6/4 900 м
[Sc diur, vesp Ac trans]
+40.0 +9.0 16 +38 +38 очень
жарко
998.9 934.2 +45.0
21 16.06 СЗ 2 10 км 4/0
[As op]
+36.0 +8.0 18 +34 +34 очень
жарко
999.0 934.3
00 17.06 штиль 0 10 км 4/0
[As op]
+33.0 +7.0 20 +31 +31 жарко 998.5 933.5
03 17.06 СВ 1 10 км 4/0
[As op]
+30.0 +6.0 22 +29 +29 жарко 1000.1 934.4
06 17.06 Ю 2 10 км 5/0
[As op]
+36.5 +9.0 19 +35 +42 очень
жарко
1001.5 936.1 +29.0
09 17.06 В 1 10 км 5/0
[As trans]
+43.5 +13.0 17 +43 +61 опасность
перегрева
999.7 934.8
12 17.06 нст 1 10 км ясно +44.5 +15.0 18 +45 +60 опасность
перегрева
997.8 932.8
15 17.06 С 3 10 км 4/1 900 м
[Cu hum Ac trans]
+43.6 +14.0 18 +44 +44 опасность
перегрева
997.8 932.8
18 17.06 СВ 3 10 км 4/0
[Ac As]
+38.0 +10.0 18 +36 +36 очень
жарко
999.4 934.3 +46.0
21 17.06 В 3 10 км 4/0
[Ac As]
+33.5 +8.0 21 +32 +32 жарко 999.7 934.5
00 18.06 ЮЗ 2 10 км ясно +29.6 +7.0 24 +28 +28 жарко 999.4 934.1
03 18.06 ЮЗ 2 10 км ясно +27.0 +7.0 28 +27 +27 жарко 1001.9 935.7
06 18.06 4 10 км ясно +38.0 +8.0 16 +36 +44 очень
жарко
1002.8 937.1 +27.0
09 18.06 ЮВ 2 10 км ясно +43.0 +12.0 16 +42 +64 опасность
перегрева
1001.4 936.1
12 18.06 СВ 2 10 км ясно +45.0 +13.0 16 +45 +57 опасность
перегрева
999.6 934.1
15 18.06 В 4 10 км ясно +34.0 +12.0 26 +34 +34 очень
жарко
1000.2 933.7
18 18.06 В 2 10 км ясно +37.0 +9.0 18 +35 +35 очень
жарко
1000.0 934.8 +45.0
21 18.06 З 2 10 км ясно +33.0 +6.0 19 +31 +31 жарко 999.9 934.7
00 19.06 С 1 10 км ясно +29.0 +9.0 29 +29 +29 жарко 999.4 934.0
03 19.06 ЮВ 3 10 км ясно +29.0 +9.0 29 +29 +29 жарко 1001.2 935.2
06 19.06 Ю 4 10 км ясно +36.0 +12.0 24 +36 +45 очень
жарко
1001.5 935.6 +27.0

 

Местоположение метеостанции Аэропорт Вади-эль-Давасир (Саудовская Аравия): широта 20.50 долгота 45.25 высота над уровнем моря 622 м.

В архиве по умолчанию представлена погода в Аэропорту Вади-эль-Давасир за последнюю неделю. Архивные данные за месяц целиком и за предыдущие месяцы, начиная с января 2011 года, Вы можете получить, выбрав интересующий диапазон дат из раскрывающегося списка и нажав кнопку "Ввод!".


*Определитесь, кто Вы:
робот инопланетянин человек

Внимание! Время в таблицах - всемирное. Для получения местного времени необходимо прибавить поправку, которая равна 3 ч.

Смотрите также архив погоды в соседних городах и на ближайших метеорологических станциях:

Погода в Бише (Саудовская Аравия) (279 км)
Погода в Найране (Саудовская Аравия) (332 км)
Погода в Хамис-Мушайте (Саудовская Аравия) (355 км)
Погода в Абхе (Саудовская Аравия) (372 км)
Погода в Аль-Бахе (Саудовская Аравия) (376 км)
Погода в Шаруре (Саудовская Аравия) (389 км)
Погода в Гизане (Саудовская Аравия) (491 км)
Погода в Аль-Таифе (Саудовская Аравия) (500 км)
Погода в Аэропорту Король Халид (Саудовская Аравия) (515 км)
Погода в Хадже (Йемен) (549 км)

Пояснения к столбцам:

Ветер - указаны скорость ветра в м/с - средняя за 10 мин, порывы в срок и между сроками (в фигурных скобках) и направление, откуда дует ветер: С - северный, СВ - северо-восточный, В - восточный, ЮВ - юго-восточный, Ю - южный, ЮЗ - юго-западный, З - западный, СЗ - северо-западный.
Видимость - горизонтальная дальность видимости в метрах или километрах. При видимости от 1 до 10 км при отсутствии осадков обычно наблюдается дымка, при ухудшении видимости до 1 км и менее - туман. В сухую погоду видимость может ухудшаться дымом, пылью или мглою.
Явления - указаны атмосферные явления, наблюдавшиеся в срок или в последний час перед сроком; фигурными скобками обозначены явления, наблюдавшиеся между сроками (за 1-3 часа до срока); квадратными скобками обозначены град или гололедные отложения с указанием их диаметра в мм.
Облачность - указаны через наклонную черту общая и нижняя облачность в баллах и высота нижней границы облаков в метрах; квадратными скобками обозначены формы облаков: Ci - перистые, Cs - перисто-слоистые, Cc - перисто-кучевые, Ac - высококучевые, As - высокослоистые, Sc - слоисто-кучевые, Ns - слоисто-дождевые, Cu - кучевые, Cb - кучево-дождевые. Подробнее классификацию облаков см. в Атласе облаков (PDF).
T - Температура воздуха - температура, измеренная на высоте 2 м над землей.
Td - Температура точки росы - температура, при понижении до которой содержащийся в воздухе водяной пар достигнет насыщения.
f - Относительная влажность воздуха - влажноcть воздуха, измеренная на высоте 2 м над землей.
Te - Эффективная температура - температура, которую ощущает одетый по сезону человек в тени. Характеристика душности погоды. При расчете учитывается влияние влажности воздуха и скорости ветра на теплоощущения человека.
Tes - Эффективная температура на солнце - температура, которую ощущает человек, с поправкой на солнечный нагрев. Характеристика знойности погоды. Зависит от высоты солнца над горизонтом, облачности и скорости ветра. Ночью, в пасмурную погоду, а также при ветре 12 м/с и более поправка равна нулю.
P - Атмосферное давление - приведенное к уровню моря атмосферное давление.
Po - Атмосферное давление - измеренное на уровне метеостанции атмосферное давление.
Tmin - Минимальная температура - минимум температуры воздуха на высоте 2 м над землей.
Tmax - Максимальная температура - максимум температуры воздуха на высоте 2 м над землей.
R - Количество осадков - Количество выпавших осадков за период времени, мм. При наведении курсора мыши на число - период времени, за который выпало указанное количество осадков.
R24 - Количество осадков - Количество выпавших осадков за 24 часа, мм.
S - Снежный покров - Высота снежного покрова, см. При наведении курсора мыши на число - состояние снежного покрова и степень покрытия местности в баллах.